#datetime,building,power
2024-03-22T00:00:00,mnr,5.68
2024-03-22T00:01:00,mnr,5.83
2024-03-22T00:02:00,mnr,7.02
2024-03-22T00:03:00,mnr,5.76
2024-03-22T00:04:00,mnr,5.95
2024-03-22T00:05:00,mnr,5.94
2024-03-22T00:06:00,mnr,5.97
2024-03-22T00:07:00,mnr,5.89
2024-03-22T00:08:00,mnr,5.82
2024-03-22T00:09:00,mnr,5.80
2024-03-22T00:10:00,mnr,5.86
2024-03-22T00:11:00,mnr,5.87
2024-03-22T00:12:00,mnr,5.81
2024-03-22T00:13:00,mnr,5.82
2024-03-22T00:14:00,mnr,5.80
2024-03-22T00:15:00,mnr,5.89
2024-03-22T00:16:00,mnr,5.86
2024-03-22T00:17:00,mnr,6.20
2024-03-22T00:18:00,mnr,6.07
2024-03-22T00:19:00,mnr,5.90
2024-03-22T00:20:00,mnr,5.95
2024-03-22T00:21:00,mnr,5.91
2024-03-22T00:22:00,mnr,5.93
2024-03-22T00:23:00,mnr,6.60
2024-03-22T00:24:00,mnr,5.84
2024-03-22T00:25:00,mnr,5.87
2024-03-22T00:26:00,mnr,6.32
2024-03-22T00:27:00,mnr,6.07
2024-03-22T00:28:00,mnr,6.42
2024-03-22T00:29:00,mnr,5.93
2024-03-22T00:30:00,mnr,6.12
2024-03-22T00:31:00,mnr,5.81
2024-03-22T00:32:00,mnr,7.17
2024-03-22T00:33:00,mnr,5.78
2024-03-22T00:34:00,mnr,5.77
2024-03-22T00:35:00,mnr,5.79
2024-03-22T00:36:00,mnr,6.46
2024-03-22T00:37:00,mnr,6.14
2024-03-22T00:38:00,mnr,6.24
2024-03-22T00:39:00,mnr,6.31
2024-03-22T00:40:00,mnr,6.79
2024-03-22T00:41:00,mnr,6.13
2024-03-22T00:42:00,mnr,6.20
2024-03-22T00:43:00,mnr,6.11
2024-03-22T00:44:00,mnr,6.18
2024-03-22T00:45:00,mnr,6.90
2024-03-22T00:46:00,mnr,6.15
2024-03-22T00:47:00,mnr,7.48
2024-03-22T00:48:00,mnr,7.61
2024-03-22T00:49:00,mnr,6.45
2024-03-22T00:50:00,mnr,6.26
2024-03-22T00:51:00,mnr,6.19
2024-03-22T00:52:00,mnr,6.22
2024-03-22T00:53:00,mnr,6.33
2024-03-22T00:54:00,mnr,6.19
2024-03-22T00:55:00,mnr,6.23
2024-03-22T00:56:00,mnr,6.16
2024-03-22T00:57:00,mnr,6.25
2024-03-22T00:58:00,mnr,6.16
2024-03-22T00:59:00,mnr,6.22
2024-03-22T01:00:00,mnr,6.22
2024-03-22T01:01:00,mnr,7.45
2024-03-22T01:02:00,mnr,6.30
2024-03-22T01:03:00,mnr,6.36
2024-03-22T01:04:00,mnr,6.34
2024-03-22T01:05:00,mnr,6.34
2024-03-22T01:06:00,mnr,6.34
2024-03-22T01:07:00,mnr,6.83
2024-03-22T01:08:00,mnr,6.30
2024-03-22T01:09:00,mnr,6.51
2024-03-22T01:10:00,mnr,6.31
2024-03-22T01:11:00,mnr,6.22
2024-03-22T01:12:00,mnr,6.99
2024-03-22T01:13:00,mnr,6.90
2024-03-22T01:14:00,mnr,6.25
2024-03-22T01:15:00,mnr,6.37
2024-03-22T01:16:00,mnr,7.59
2024-03-22T01:17:00,mnr,6.34
2024-03-22T01:18:00,mnr,6.33
2024-03-22T01:19:00,mnr,6.30
2024-03-22T01:20:00,mnr,6.34
2024-03-22T01:21:00,mnr,6.27
2024-03-22T01:22:00,mnr,6.27
2024-03-22T01:23:00,mnr,6.25
2024-03-22T01:24:00,mnr,6.22
2024-03-22T01:25:00,mnr,7.02
2024-03-22T01:26:00,mnr,6.60
2024-03-22T01:27:00,mnr,7.02
2024-03-22T01:28:00,mnr,6.28
2024-03-22T01:29:00,mnr,6.30
2024-03-22T01:30:00,mnr,6.31
2024-03-22T01:31:00,mnr,6.29
2024-03-22T01:32:00,mnr,6.48
2024-03-22T01:33:00,mnr,5.80
2024-03-22T01:34:00,mnr,5.82
2024-03-22T01:35:00,mnr,6.52
2024-03-22T01:36:00,mnr,5.76
2024-03-22T01:37:00,mnr,5.81
2024-03-22T01:38:00,mnr,5.83
2024-03-22T01:39:00,mnr,5.83
2024-03-22T01:40:00,mnr,6.56
2024-03-22T01:41:00,mnr,5.86
2024-03-22T01:42:00,mnr,5.86
2024-03-22T01:43:00,mnr,5.84
2024-03-22T01:44:00,mnr,6.54
2024-03-22T01:45:00,mnr,6.61
2024-03-22T01:46:00,mnr,5.77
2024-03-22T01:47:00,mnr,6.25
2024-03-22T01:48:00,mnr,5.81
2024-03-22T01:49:00,mnr,5.72
2024-03-22T01:50:00,mnr,5.85
2024-03-22T01:51:00,mnr,5.88
2024-03-22T01:52:00,mnr,5.74
2024-03-22T01:53:00,mnr,5.75
2024-03-22T01:54:00,mnr,5.77
2024-03-22T01:55:00,mnr,5.80
2024-03-22T01:56:00,mnr,5.98
2024-03-22T01:57:00,mnr,5.74
2024-03-22T01:58:00,mnr,5.80
2024-03-22T01:59:00,mnr,5.82
2024-03-22T02:00:00,mnr,6.55
2024-03-22T02:01:00,mnr,7.02
2024-03-22T02:02:00,mnr,5.87
2024-03-22T02:03:00,mnr,5.89
2024-03-22T02:04:00,mnr,5.88
2024-03-22T02:05:00,mnr,6.28
2024-03-22T02:06:00,mnr,5.80
2024-03-22T02:07:00,mnr,6.42
2024-03-22T02:08:00,mnr,5.67
2024-03-22T02:09:00,mnr,6.22
2024-03-22T02:10:00,mnr,6.11
2024-03-22T02:11:00,mnr,6.17
2024-03-22T02:12:00,mnr,6.15
2024-03-22T02:13:00,mnr,6.26
2024-03-22T02:14:00,mnr,6.25
2024-03-22T02:15:00,mnr,6.82
2024-03-22T02:16:00,mnr,6.30
2024-03-22T02:17:00,mnr,6.33
2024-03-22T02:18:00,mnr,6.30
2024-03-22T02:19:00,mnr,6.28
2024-03-22T02:20:00,mnr,6.30
2024-03-22T02:21:00,mnr,6.82
2024-03-22T02:22:00,mnr,6.20
2024-03-22T02:23:00,mnr,6.17
2024-03-22T02:24:00,mnr,6.21
2024-03-22T02:25:00,mnr,6.19
2024-03-22T02:26:00,mnr,6.39
2024-03-22T02:27:00,mnr,6.34
2024-03-22T02:28:00,mnr,6.35
2024-03-22T02:29:00,mnr,6.38
2024-03-22T02:30:00,mnr,6.37
2024-03-22T02:31:00,mnr,6.45
2024-03-22T02:32:00,mnr,6.28
2024-03-22T02:33:00,mnr,6.33
2024-03-22T02:34:00,mnr,6.30
2024-03-22T02:35:00,mnr,6.23
2024-03-22T02:36:00,mnr,6.54
2024-03-22T02:37:00,mnr,6.25
2024-03-22T02:38:00,mnr,6.91
2024-03-22T02:39:00,mnr,6.33
2024-03-22T02:40:00,mnr,6.26
2024-03-22T02:41:00,mnr,6.90
2024-03-22T02:42:00,mnr,6.28
2024-03-22T02:43:00,mnr,6.28
2024-03-22T02:44:00,mnr,6.50
2024-03-22T02:45:00,mnr,6.96
2024-03-22T02:46:00,mnr,6.13
2024-03-22T02:47:00,mnr,6.16
2024-03-22T02:48:00,mnr,6.14
2024-03-22T02:49:00,mnr,6.21
2024-03-22T02:50:00,mnr,6.23
2024-03-22T02:51:00,mnr,7.43
2024-03-22T02:52:00,mnr,6.26
2024-03-22T02:53:00,mnr,6.19
2024-03-22T02:54:00,mnr,6.92
2024-03-22T02:55:00,mnr,6.24
2024-03-22T02:56:00,mnr,6.22
2024-03-22T02:57:00,mnr,6.88
2024-03-22T02:58:00,mnr,8.12
2024-03-22T02:59:00,mnr,6.33
2024-03-22T03:00:00,mnr,6.30
2024-03-22T03:01:00,mnr,6.97
2024-03-22T03:02:00,mnr,6.26
2024-03-22T03:03:00,mnr,6.27
2024-03-22T03:04:00,mnr,6.27
2024-03-22T03:05:00,mnr,5.77
2024-03-22T03:06:00,mnr,5.84
2024-03-22T03:07:00,mnr,6.43
2024-03-22T03:08:00,mnr,5.77
2024-03-22T03:09:00,mnr,5.83
2024-03-22T03:10:00,mnr,5.79
2024-03-22T03:11:00,mnr,6.50
2024-03-22T03:12:00,mnr,5.77
2024-03-22T03:13:00,mnr,5.86
2024-03-22T03:14:00,mnr,6.12
2024-03-22T03:15:00,mnr,5.72
2024-03-22T03:16:00,mnr,6.86
2024-03-22T03:17:00,mnr,5.72
2024-03-22T03:18:00,mnr,6.35
2024-03-22T03:19:00,mnr,5.70
2024-03-22T03:20:00,mnr,5.72
2024-03-22T03:21:00,mnr,6.32
2024-03-22T03:22:00,mnr,5.72
2024-03-22T03:23:00,mnr,5.68
2024-03-22T03:24:00,mnr,5.72
2024-03-22T03:25:00,mnr,5.71
2024-03-22T03:26:00,mnr,5.67
2024-03-22T03:27:00,mnr,6.42
2024-03-22T03:28:00,mnr,5.92
2024-03-22T03:29:00,mnr,5.96
2024-03-22T03:30:00,mnr,5.70
2024-03-22T03:31:00,mnr,5.71
2024-03-22T03:32:00,mnr,6.27
2024-03-22T03:33:00,mnr,5.75
2024-03-22T03:34:00,mnr,5.71
2024-03-22T03:35:00,mnr,5.82
2024-03-22T03:36:00,mnr,5.87
2024-03-22T03:37:00,mnr,5.79
2024-03-22T03:38:00,mnr,5.83
2024-03-22T03:39:00,mnr,5.91
2024-03-22T03:40:00,mnr,5.93
2024-03-22T03:41:00,mnr,5.85
2024-03-22T03:42:00,mnr,6.23
2024-03-22T03:43:00,mnr,7.01
2024-03-22T03:44:00,mnr,6.87
2024-03-22T03:45:00,mnr,6.57
2024-03-22T03:46:00,mnr,6.38
2024-03-22T03:47:00,mnr,6.64
2024-03-22T03:48:00,mnr,6.29
2024-03-22T03:49:00,mnr,6.54
2024-03-22T03:50:00,mnr,6.39
2024-03-22T03:51:00,mnr,7.04
2024-03-22T03:52:00,mnr,7.13
2024-03-22T03:53:00,mnr,6.35
2024-03-22T03:54:00,mnr,6.47
2024-03-22T03:55:00,mnr,6.49
2024-03-22T03:56:00,mnr,6.37
2024-03-22T03:57:00,mnr,6.40
2024-03-22T03:58:00,mnr,6.35
2024-03-22T03:59:00,mnr,6.30
2024-03-22T04:00:00,mnr,6.34
2024-03-22T04:01:00,mnr,6.48
2024-03-22T04:02:00,mnr,6.26
2024-03-22T04:03:00,mnr,6.15
2024-03-22T04:04:00,mnr,6.17
2024-03-22T04:05:00,mnr,6.21
2024-03-22T04:06:00,mnr,6.20
2024-03-22T04:07:00,mnr,6.87
2024-03-22T04:08:00,mnr,6.23
2024-03-22T04:09:00,mnr,7.03
2024-03-22T04:10:00,mnr,6.63
2024-03-22T04:11:00,mnr,6.46
2024-03-22T04:12:00,mnr,6.86
2024-03-22T04:13:00,mnr,6.16
2024-03-22T04:14:00,mnr,6.98
2024-03-22T04:15:00,mnr,6.18
2024-03-22T04:16:00,mnr,6.14
2024-03-22T04:17:00,mnr,6.11
2024-03-22T04:18:00,mnr,6.18
2024-03-22T04:19:00,mnr,6.16
2024-03-22T04:20:00,mnr,6.81
2024-03-22T04:21:00,mnr,7.07
2024-03-22T04:22:00,mnr,7.06
2024-03-22T04:23:00,mnr,7.30
2024-03-22T04:24:00,mnr,7.27
2024-03-22T04:25:00,mnr,7.05
2024-03-22T04:26:00,mnr,6.85
2024-03-22T04:27:00,mnr,6.19
2024-03-22T04:28:00,mnr,7.42
2024-03-22T04:29:00,mnr,7.92
2024-03-22T04:30:00,mnr,7.09
2024-03-22T04:31:00,mnr,7.05
2024-03-22T04:32:00,mnr,7.02
2024-03-22T04:33:00,mnr,7.22
2024-03-22T04:34:00,mnr,7.08
2024-03-22T04:35:00,mnr,7.05
2024-03-22T04:36:00,mnr,7.04
2024-03-22T04:37:00,mnr,7.00
2024-03-22T04:38:00,mnr,6.91
2024-03-22T04:39:00,mnr,7.10
2024-03-22T04:40:00,mnr,7.57
2024-03-22T04:41:00,mnr,6.98
2024-03-22T04:42:00,mnr,7.53
2024-03-22T04:43:00,mnr,7.48
2024-03-22T04:44:00,mnr,7.02
2024-03-22T04:45:00,mnr,6.90
2024-03-22T04:46:00,mnr,6.95
2024-03-22T04:47:00,mnr,7.39
2024-03-22T04:48:00,mnr,7.66
2024-03-22T04:49:00,mnr,7.10
2024-03-22T04:50:00,mnr,7.08
2024-03-22T04:51:00,mnr,6.84
2024-03-22T04:52:00,mnr,8.71
2024-03-22T04:53:00,mnr,9.21
2024-03-22T04:54:00,mnr,8.27
2024-03-22T04:55:00,mnr,8.39
2024-03-22T04:56:00,mnr,8.38
2024-03-22T04:57:00,mnr,6.85
2024-03-22T04:58:00,mnr,7.05
2024-03-22T04:59:00,mnr,8.85
2024-03-22T05:00:00,mnr,8.42
2024-03-22T05:01:00,mnr,7.73
2024-03-22T05:02:00,mnr,7.71
2024-03-22T05:03:00,mnr,7.47
2024-03-22T05:04:00,mnr,7.41
2024-03-22T05:05:00,mnr,7.39
2024-03-22T05:06:00,mnr,7.37
2024-03-22T05:07:00,mnr,7.40
2024-03-22T05:08:00,mnr,8.23
2024-03-22T05:09:00,mnr,8.66
2024-03-22T05:10:00,mnr,7.49
2024-03-22T05:11:00,mnr,8.42
2024-03-22T05:12:00,mnr,7.37
2024-03-22T05:13:00,mnr,8.10
2024-03-22T05:14:00,mnr,7.56
2024-03-22T05:15:00,mnr,7.54
2024-03-22T05:16:00,mnr,7.43
2024-03-22T05:17:00,mnr,6.03
2024-03-22T05:18:00,mnr,5.94
2024-03-22T05:19:00,mnr,6.00
2024-03-22T05:20:00,mnr,6.15
2024-03-22T05:21:00,mnr,7.35
2024-03-22T05:22:00,mnr,6.73
2024-03-22T05:23:00,mnr,6.78
2024-03-22T05:24:00,mnr,6.77
2024-03-22T05:25:00,mnr,7.20
2024-03-22T05:26:00,mnr,6.22
2024-03-22T05:27:00,mnr,6.33
2024-03-22T05:28:00,mnr,6.79
2024-03-22T05:29:00,mnr,6.27
2024-03-22T05:30:00,mnr,6.83
2024-03-22T05:31:00,mnr,6.14
2024-03-22T05:32:00,mnr,6.14
2024-03-22T05:33:00,mnr,6.38
2024-03-22T05:34:00,mnr,6.38
2024-03-22T05:35:00,mnr,6.25
2024-03-22T05:36:00,mnr,6.70
2024-03-22T05:37:00,mnr,7.86
2024-03-22T05:38:00,mnr,7.55
2024-03-22T05:39:00,mnr,7.64
2024-03-22T05:40:00,mnr,8.41
2024-03-22T05:41:00,mnr,6.22
2024-03-22T05:42:00,mnr,6.90
2024-03-22T05:43:00,mnr,7.66
2024-03-22T05:44:00,mnr,7.79
2024-03-22T05:45:00,mnr,7.66
2024-03-22T05:46:00,mnr,7.72
2024-03-22T05:47:00,mnr,8.24
2024-03-22T05:48:00,mnr,7.56
2024-03-22T05:49:00,mnr,8.25
2024-03-22T05:50:00,mnr,8.14
2024-03-22T05:51:00,mnr,7.53
2024-03-22T05:52:00,mnr,7.95
2024-03-22T05:53:00,mnr,7.47
2024-03-22T05:54:00,mnr,7.57
2024-03-22T05:55:00,mnr,7.55
2024-03-22T05:56:00,mnr,7.52
2024-03-22T05:57:00,mnr,8.16
2024-03-22T05:58:00,mnr,7.89
2024-03-22T05:59:00,mnr,7.42
2024-03-22T06:00:00,mnr,7.86
2024-03-22T06:01:00,mnr,6.39
2024-03-22T06:02:00,mnr,8.97
2024-03-22T06:03:00,mnr,9.52
2024-03-22T06:04:00,mnr,10.13
2024-03-22T06:05:00,mnr,10.96
2024-03-22T06:06:00,mnr,14.19
2024-03-22T06:07:00,mnr,15.53
2024-03-22T06:08:00,mnr,14.85
2024-03-22T06:09:00,mnr,13.72
2024-03-22T06:10:00,mnr,13.53
2024-03-22T06:11:00,mnr,13.09
2024-03-22T06:12:00,mnr,15.10
2024-03-22T06:13:00,mnr,13.90
2024-03-22T06:14:00,mnr,14.36
2024-03-22T06:15:00,mnr,15.09
2024-03-22T06:16:00,mnr,14.35
2024-03-22T06:17:00,mnr,14.98
2024-03-22T06:18:00,mnr,14.50
2024-03-22T06:19:00,mnr,14.45
2024-03-22T06:20:00,mnr,14.52
2024-03-22T06:21:00,mnr,14.49
2024-03-22T06:22:00,mnr,16.31
2024-03-22T06:23:00,mnr,15.65
2024-03-22T06:24:00,mnr,15.54
2024-03-22T06:25:00,mnr,15.79
2024-03-22T06:26:00,mnr,15.61
2024-03-22T06:27:00,mnr,16.35
2024-03-22T06:28:00,mnr,15.79
2024-03-22T06:29:00,mnr,14.47
2024-03-22T06:30:00,mnr,14.44
2024-03-22T06:31:00,mnr,14.36
2024-03-22T06:32:00,mnr,15.65
2024-03-22T06:33:00,mnr,15.74
2024-03-22T06:34:00,mnr,15.74
2024-03-22T06:35:00,mnr,15.68
2024-03-22T06:36:00,mnr,15.67
2024-03-22T06:37:00,mnr,15.67
2024-03-22T06:38:00,mnr,16.45
2024-03-22T06:39:00,mnr,16.31
2024-03-22T06:40:00,mnr,16.45
2024-03-22T06:41:00,mnr,14.18
2024-03-22T06:42:00,mnr,17.11
2024-03-22T06:43:00,mnr,16.10
2024-03-22T06:44:00,mnr,17.21
2024-03-22T06:45:00,mnr,16.19
2024-03-22T06:46:00,mnr,16.30
2024-03-22T06:47:00,mnr,16.32
2024-03-22T06:48:00,mnr,16.16
2024-03-22T06:49:00,mnr,16.61
2024-03-22T06:50:00,mnr,12.80
2024-03-22T06:51:00,mnr,16.42
2024-03-22T06:52:00,mnr,16.31
2024-03-22T06:53:00,mnr,15.88
2024-03-22T06:54:00,mnr,14.84
2024-03-22T06:55:00,mnr,14.87
2024-03-22T06:56:00,mnr,14.77
2024-03-22T06:57:00,mnr,14.81
2024-03-22T06:58:00,mnr,14.81
2024-03-22T06:59:00,mnr,15.34
2024-03-22T07:00:00,mnr,15.79
2024-03-22T07:01:00,mnr,15.81
2024-03-22T07:02:00,mnr,16.84
2024-03-22T07:03:00,mnr,16.75
2024-03-22T07:04:00,mnr,17.31
2024-03-22T07:05:00,mnr,16.77
2024-03-22T07:06:00,mnr,16.12
2024-03-22T07:07:00,mnr,16.17
2024-03-22T07:08:00,mnr,16.18
2024-03-22T07:09:00,mnr,17.05
2024-03-22T07:10:00,mnr,11.95
2024-03-22T07:11:00,mnr,16.64
2024-03-22T07:12:00,mnr,16.53
2024-03-22T07:13:00,mnr,15.60
2024-03-22T07:14:00,mnr,15.69
2024-03-22T07:15:00,mnr,16.04
2024-03-22T07:16:00,mnr,15.62
2024-03-22T07:17:00,mnr,15.76
2024-03-22T07:18:00,mnr,16.29
2024-03-22T07:19:00,mnr,15.77
2024-03-22T07:20:00,mnr,15.59
2024-03-22T07:21:00,mnr,15.73
2024-03-22T07:22:00,mnr,15.86
2024-03-22T07:23:00,mnr,15.81
2024-03-22T07:24:00,mnr,16.27
2024-03-22T07:25:00,mnr,15.51
2024-03-22T07:26:00,mnr,17.01
2024-03-22T07:27:00,mnr,16.98
2024-03-22T07:28:00,mnr,16.65
2024-03-22T07:29:00,mnr,16.11
2024-03-22T07:30:00,mnr,16.25
2024-03-22T07:31:00,mnr,16.87
2024-03-22T07:32:00,mnr,17.50
2024-03-22T07:33:00,mnr,16.95
2024-03-22T07:34:00,mnr,18.30
2024-03-22T07:35:00,mnr,17.63
2024-03-22T07:36:00,mnr,18.12
2024-03-22T07:37:00,mnr,16.97
2024-03-22T07:38:00,mnr,17.03
2024-03-22T07:39:00,mnr,16.92
2024-03-22T07:40:00,mnr,17.12
2024-03-22T07:41:00,mnr,15.84
2024-03-22T07:42:00,mnr,15.62
2024-03-22T07:43:00,mnr,15.62
2024-03-22T07:44:00,mnr,15.57
2024-03-22T07:45:00,mnr,16.77
2024-03-22T07:46:00,mnr,16.20
2024-03-22T07:47:00,mnr,15.49
2024-03-22T07:48:00,mnr,15.51
2024-03-22T07:49:00,mnr,15.77
2024-03-22T07:50:00,mnr,15.45
2024-03-22T07:51:00,mnr,15.39
2024-03-22T07:52:00,mnr,15.39
2024-03-22T07:53:00,mnr,15.46
2024-03-22T07:54:00,mnr,23.23
2024-03-22T07:55:00,mnr,16.98
2024-03-22T07:56:00,mnr,15.99
2024-03-22T07:57:00,mnr,16.00
2024-03-22T07:58:00,mnr,15.73
2024-03-22T07:59:00,mnr,16.27
2024-03-22T08:00:00,mnr,16.49
2024-03-22T08:01:00,mnr,16.94
2024-03-22T08:02:00,mnr,16.17
2024-03-22T08:03:00,mnr,16.08
2024-03-22T08:04:00,mnr,16.13
2024-03-22T08:05:00,mnr,17.51
2024-03-22T08:06:00,mnr,16.12
2024-03-22T08:07:00,mnr,16.11
2024-03-22T08:08:00,mnr,16.21
2024-03-22T08:09:00,mnr,16.49
2024-03-22T08:10:00,mnr,16.22
2024-03-22T08:11:00,mnr,25.17
2024-03-22T08:12:00,mnr,16.18
2024-03-22T08:13:00,mnr,16.31
2024-03-22T08:14:00,mnr,16.84
2024-03-22T08:15:00,mnr,16.95
2024-03-22T08:16:00,mnr,16.25
2024-03-22T08:17:00,mnr,16.56
2024-03-22T08:18:00,mnr,16.12
2024-03-22T08:19:00,mnr,16.79
2024-03-22T08:20:00,mnr,16.21
2024-03-22T08:21:00,mnr,15.95
2024-03-22T08:22:00,mnr,18.01
2024-03-22T08:23:00,mnr,15.47
2024-03-22T08:24:00,mnr,15.41
2024-03-22T08:25:00,mnr,15.49
2024-03-22T08:26:00,mnr,15.91
2024-03-22T08:27:00,mnr,15.36
2024-03-22T08:28:00,mnr,15.26
2024-03-22T08:29:00,mnr,15.26
2024-03-22T08:30:00,mnr,15.32
2024-03-22T08:31:00,mnr,15.19
2024-03-22T08:32:00,mnr,15.26
2024-03-22T08:33:00,mnr,15.74
2024-03-22T08:34:00,mnr,15.42
2024-03-22T08:35:00,mnr,16.12
2024-03-22T08:36:00,mnr,15.39
2024-03-22T08:37:00,mnr,15.40
2024-03-22T08:38:00,mnr,15.37
2024-03-22T08:39:00,mnr,15.53
2024-03-22T08:40:00,mnr,15.39
2024-03-22T08:41:00,mnr,16.15
2024-03-22T08:42:00,mnr,15.24
2024-03-22T08:43:00,mnr,15.32
2024-03-22T08:44:00,mnr,15.26
2024-03-22T08:45:00,mnr,16.36
2024-03-22T08:46:00,mnr,15.41
2024-03-22T08:47:00,mnr,15.23
2024-03-22T08:48:00,mnr,14.60
2024-03-22T08:49:00,mnr,14.59
2024-03-22T08:50:00,mnr,14.60
2024-03-22T08:51:00,mnr,14.82
2024-03-22T08:52:00,mnr,14.70
2024-03-22T08:53:00,mnr,14.66
2024-03-22T08:54:00,mnr,14.68
2024-03-22T08:55:00,mnr,14.96
2024-03-22T08:56:00,mnr,15.57
2024-03-22T08:57:00,mnr,15.62
2024-03-22T08:58:00,mnr,15.61
2024-03-22T08:59:00,mnr,16.23
2024-03-22T09:00:00,mnr,15.50
2024-03-22T09:01:00,mnr,17.12
2024-03-22T09:02:00,mnr,16.80
2024-03-22T09:03:00,mnr,15.55
2024-03-22T09:04:00,mnr,15.41
2024-03-22T09:05:00,mnr,16.84
2024-03-22T09:06:00,mnr,15.36
2024-03-22T09:07:00,mnr,16.90
2024-03-22T09:08:00,mnr,15.39
2024-03-22T09:09:00,mnr,16.54
2024-03-22T09:10:00,mnr,16.48
2024-03-22T09:11:00,mnr,15.82
2024-03-22T09:12:00,mnr,15.69
2024-03-22T09:13:00,mnr,16.53
2024-03-22T09:14:00,mnr,16.50
2024-03-22T09:15:00,mnr,17.12
2024-03-22T09:16:00,mnr,16.33
2024-03-22T09:17:00,mnr,16.33
2024-03-22T09:18:00,mnr,16.37
2024-03-22T09:19:00,mnr,17.51
2024-03-22T09:20:00,mnr,16.39
2024-03-22T09:21:00,mnr,17.52
2024-03-22T09:22:00,mnr,16.38
2024-03-22T09:23:00,mnr,17.01
2024-03-22T09:24:00,mnr,16.50
2024-03-22T09:25:00,mnr,16.90
2024-03-22T09:26:00,mnr,16.19
2024-03-22T09:27:00,mnr,16.27
2024-03-22T09:28:00,mnr,16.13
2024-03-22T09:29:00,mnr,16.32
2024-03-22T09:30:00,mnr,16.45
2024-03-22T09:31:00,mnr,16.32
2024-03-22T09:32:00,mnr,18.02
2024-03-22T09:33:00,mnr,17.59
2024-03-22T09:34:00,mnr,16.25
2024-03-22T09:35:00,mnr,16.53
2024-03-22T09:36:00,mnr,16.80
2024-03-22T09:37:00,mnr,26.42
2024-03-22T09:38:00,mnr,16.54
2024-03-22T09:39:00,mnr,17.46
2024-03-22T09:40:00,mnr,16.48
2024-03-22T09:41:00,mnr,16.57
2024-03-22T09:42:00,mnr,17.22
2024-03-22T09:43:00,mnr,16.58
2024-03-22T09:44:00,mnr,18.15
2024-03-22T09:45:00,mnr,18.24
2024-03-22T09:46:00,mnr,18.24
2024-03-22T09:47:00,mnr,19.76
2024-03-22T09:48:00,mnr,20.25
2024-03-22T09:49:00,mnr,20.12
2024-03-22T09:50:00,mnr,19.61
2024-03-22T09:51:00,mnr,20.39
2024-03-22T09:52:00,mnr,20.34
2024-03-22T09:53:00,mnr,19.50
2024-03-22T09:54:00,mnr,19.47
2024-03-22T09:55:00,mnr,19.51
2024-03-22T09:56:00,mnr,19.72
2024-03-22T09:57:00,mnr,19.66
2024-03-22T09:58:00,mnr,19.71
2024-03-22T09:59:00,mnr,22.39
2024-03-22T10:00:00,mnr,20.81
2024-03-22T10:01:00,mnr,19.55
2024-03-22T10:02:00,mnr,18.18
2024-03-22T10:03:00,mnr,18.44
2024-03-22T10:04:00,mnr,18.85
2024-03-22T10:05:00,mnr,18.23
2024-03-22T10:06:00,mnr,17.73
2024-03-22T10:07:00,mnr,18.28
2024-03-22T10:08:00,mnr,17.66
2024-03-22T10:09:00,mnr,18.19
2024-03-22T10:10:00,mnr,18.85
2024-03-22T10:11:00,mnr,17.67
2024-03-22T10:12:00,mnr,17.57
2024-03-22T10:13:00,mnr,17.51
2024-03-22T10:14:00,mnr,17.75
2024-03-22T10:15:00,mnr,17.73
2024-03-22T10:16:00,mnr,17.73
2024-03-22T10:17:00,mnr,18.67
2024-03-22T10:18:00,mnr,17.91
2024-03-22T10:19:00,mnr,17.41
2024-03-22T10:20:00,mnr,19.00
2024-03-22T10:21:00,mnr,19.69
2024-03-22T10:22:00,mnr,19.33
2024-03-22T10:23:00,mnr,19.35
2024-03-22T10:24:00,mnr,18.66
2024-03-22T10:25:00,mnr,18.65
2024-03-22T10:26:00,mnr,18.74
2024-03-22T10:27:00,mnr,18.63
2024-03-22T10:28:00,mnr,18.66
2024-03-22T10:29:00,mnr,18.64
2024-03-22T10:30:00,mnr,18.60
2024-03-22T10:31:00,mnr,18.52
2024-03-22T10:32:00,mnr,18.48
2024-03-22T10:33:00,mnr,18.65
2024-03-22T10:34:00,mnr,18.54
2024-03-22T10:35:00,mnr,19.45
2024-03-22T10:36:00,mnr,18.92
2024-03-22T10:37:00,mnr,19.00
2024-03-22T10:38:00,mnr,19.54
2024-03-22T10:39:00,mnr,17.28
2024-03-22T10:40:00,mnr,17.36
2024-03-22T10:41:00,mnr,18.16
2024-03-22T10:42:00,mnr,18.14
2024-03-22T10:43:00,mnr,18.15
2024-03-22T10:44:00,mnr,18.12
2024-03-22T10:45:00,mnr,18.13
2024-03-22T10:46:00,mnr,18.06
2024-03-22T10:47:00,mnr,18.25
2024-03-22T10:48:00,mnr,18.11
2024-03-22T10:49:00,mnr,18.69
2024-03-22T10:50:00,mnr,18.17
2024-03-22T10:51:00,mnr,19.12
2024-03-22T10:52:00,mnr,18.26
2024-03-22T10:53:00,mnr,18.16
2024-03-22T10:54:00,mnr,18.15
2024-03-22T10:55:00,mnr,18.16
2024-03-22T10:56:00,mnr,18.35
2024-03-22T10:57:00,mnr,17.80
2024-03-22T10:58:00,mnr,17.78
2024-03-22T10:59:00,mnr,17.33
2024-03-22T11:00:00,mnr,17.36
2024-03-22T11:01:00,mnr,17.85
2024-03-22T11:02:00,mnr,17.97
2024-03-22T11:03:00,mnr,17.75
2024-03-22T11:04:00,mnr,18.68
2024-03-22T11:05:00,mnr,17.83
2024-03-22T11:06:00,mnr,18.56
2024-03-22T11:07:00,mnr,17.85
2024-03-22T11:08:00,mnr,18.35
2024-03-22T11:09:00,mnr,15.12
2024-03-22T11:10:00,mnr,17.88
2024-03-22T11:11:00,mnr,17.85
2024-03-22T11:12:00,mnr,18.47
2024-03-22T11:13:00,mnr,17.85
2024-03-22T11:14:00,mnr,17.91
2024-03-22T11:15:00,mnr,18.45
2024-03-22T11:16:00,mnr,19.02
2024-03-22T11:17:00,mnr,18.43
2024-03-22T11:18:00,mnr,18.40
2024-03-22T11:19:00,mnr,18.47
2024-03-22T11:20:00,mnr,18.90
2024-03-22T11:21:00,mnr,18.58
2024-03-22T11:22:00,mnr,18.46
2024-03-22T11:23:00,mnr,18.46
2024-03-22T11:24:00,mnr,19.35
2024-03-22T11:25:00,mnr,19.53
2024-03-22T11:26:00,mnr,19.45
2024-03-22T11:27:00,mnr,18.55
2024-03-22T11:28:00,mnr,20.49
2024-03-22T11:29:00,mnr,20.45
2024-03-22T11:30:00,mnr,20.10
2024-03-22T11:31:00,mnr,19.36
2024-03-22T11:32:00,mnr,19.44
2024-03-22T11:33:00,mnr,19.77
2024-03-22T11:34:00,mnr,19.41
2024-03-22T11:35:00,mnr,19.39
2024-03-22T11:36:00,mnr,19.30
2024-03-22T11:37:00,mnr,19.88
2024-03-22T11:38:00,mnr,19.44
2024-03-22T11:39:00,mnr,19.18
2024-03-22T11:40:00,mnr,19.17
2024-03-22T11:41:00,mnr,19.26
2024-03-22T11:42:00,mnr,19.22
2024-03-22T11:43:00,mnr,19.18
2024-03-22T11:44:00,mnr,19.41
2024-03-22T11:45:00,mnr,19.35
2024-03-22T11:46:00,mnr,19.31
2024-03-22T11:47:00,mnr,19.27
2024-03-22T11:48:00,mnr,19.25
2024-03-22T11:49:00,mnr,18.52
2024-03-22T11:50:00,mnr,18.05
2024-03-22T11:51:00,mnr,18.19
2024-03-22T11:52:00,mnr,18.68
2024-03-22T11:53:00,mnr,17.74
2024-03-22T11:54:00,mnr,18.81
2024-03-22T11:55:00,mnr,17.67
2024-03-22T11:56:00,mnr,18.49
2024-03-22T11:57:00,mnr,18.38
2024-03-22T11:58:00,mnr,19.12
2024-03-22T11:59:00,mnr,18.47
2024-03-22T12:00:00,mnr,18.49
2024-03-22T12:01:00,mnr,18.44
2024-03-22T12:02:00,mnr,19.64
2024-03-22T12:03:00,mnr,17.93
2024-03-22T12:04:00,mnr,17.94
2024-03-22T12:05:00,mnr,16.97
2024-03-22T12:06:00,mnr,17.18
2024-03-22T12:07:00,mnr,17.88
2024-03-22T12:08:00,mnr,17.68
2024-03-22T12:09:00,mnr,16.97
2024-03-22T12:10:00,mnr,16.96
2024-03-22T12:11:00,mnr,17.29
2024-03-22T12:12:00,mnr,17.20
2024-03-22T12:13:00,mnr,17.33
2024-03-22T12:14:00,mnr,17.40
2024-03-22T12:15:00,mnr,17.27
2024-03-22T12:16:00,mnr,17.81
2024-03-22T12:17:00,mnr,18.38
2024-03-22T12:18:00,mnr,17.66
2024-03-22T12:19:00,mnr,17.77
2024-03-22T12:20:00,mnr,19.72
2024-03-22T12:21:00,mnr,18.34
2024-03-22T12:22:00,mnr,17.33
2024-03-22T12:23:00,mnr,17.20
2024-03-22T12:24:00,mnr,17.04
2024-03-22T12:25:00,mnr,17.04
2024-03-22T12:26:00,mnr,16.62
2024-03-22T12:27:00,mnr,16.55
2024-03-22T12:28:00,mnr,16.61
2024-03-22T12:29:00,mnr,17.23
2024-03-22T12:30:00,mnr,16.54
2024-03-22T12:31:00,mnr,17.12
2024-03-22T12:32:00,mnr,17.08
2024-03-22T12:33:00,mnr,17.18
2024-03-22T12:34:00,mnr,17.01
2024-03-22T12:35:00,mnr,16.99
2024-03-22T12:36:00,mnr,17.04
2024-03-22T12:37:00,mnr,17.00
2024-03-22T12:38:00,mnr,17.01
2024-03-22T12:39:00,mnr,16.95
2024-03-22T12:40:00,mnr,17.69
2024-03-22T12:41:00,mnr,17.84
2024-03-22T12:42:00,mnr,17.01
2024-03-22T12:43:00,mnr,17.06
2024-03-22T12:44:00,mnr,17.03
2024-03-22T12:45:00,mnr,16.96
2024-03-22T12:46:00,mnr,16.94
2024-03-22T12:47:00,mnr,16.66
2024-03-22T12:48:00,mnr,16.67
2024-03-22T12:49:00,mnr,16.31
2024-03-22T12:50:00,mnr,16.14
2024-03-22T12:51:00,mnr,16.48
2024-03-22T12:52:00,mnr,16.93
2024-03-22T12:53:00,mnr,17.04
2024-03-22T12:54:00,mnr,16.87
2024-03-22T12:55:00,mnr,17.45
2024-03-22T12:56:00,mnr,17.06
2024-03-22T12:57:00,mnr,17.03
2024-03-22T12:58:00,mnr,16.99
2024-03-22T12:59:00,mnr,16.95
2024-03-22T13:00:00,mnr,16.93
2024-03-22T13:01:00,mnr,16.95
2024-03-22T13:02:00,mnr,16.98
2024-03-22T13:03:00,mnr,16.97
2024-03-22T13:04:00,mnr,16.99
2024-03-22T13:05:00,mnr,16.97
2024-03-22T13:06:00,mnr,16.87
2024-03-22T13:07:00,mnr,17.17
2024-03-22T13:08:00,mnr,16.82
2024-03-22T13:09:00,mnr,17.19
2024-03-22T13:10:00,mnr,16.91
2024-03-22T13:11:00,mnr,18.04
2024-03-22T13:12:00,mnr,17.00
2024-03-22T13:13:00,mnr,17.27
2024-03-22T13:14:00,mnr,17.01
2024-03-22T13:15:00,mnr,16.96
2024-03-22T13:16:00,mnr,16.92
2024-03-22T13:17:00,mnr,17.01
2024-03-22T13:18:00,mnr,17.41
2024-03-22T13:19:00,mnr,17.56
2024-03-22T13:20:00,mnr,17.11
2024-03-22T13:21:00,mnr,17.09
2024-03-22T13:22:00,mnr,17.05
2024-03-22T13:23:00,mnr,17.84
2024-03-22T13:24:00,mnr,17.10
2024-03-22T13:25:00,mnr,17.06
2024-03-22T13:26:00,mnr,17.12
2024-03-22T13:27:00,mnr,17.08
2024-03-22T13:28:00,mnr,17.10
2024-03-22T13:29:00,mnr,16.46
2024-03-22T13:30:00,mnr,16.44